User: anonymous   Login
Location: Unspecified
(0.0000°N, 0.0000°E)
Time: 11:22:39
(UTC+00:00)
Language:

NAVSTAR 64 (USA 206) - Orbit

View from above orbital plane
View from above orbital plane
View from above satellite
View from above satellite

Ground track
Ground track

The orbit data is extracted from the following two-line orbital elements,

1 35752U 09043A   15186.35269696  .00000070  00000-0  00000+0 0  9991
2 35752 054.2327 188.4140 0041105 018.3079 233.8684 02.00572811 43111
Epoch (UTC): 05 July 2015 08:27:53
Eccentricity: 0.0041105
inclination: 54.2327°
perigee height: 20072 km
apogee height: 20290 km
right ascension of ascending node: 188.4140°
argument of perigee: 18.3079°
revolutions per day: 2.00572811
mean anomaly at epoch: 233.8684°
orbit number at epoch: 4311

The dashed part of the orbit path shows where the satellite is in the earth's shadow,  

DLR